Find Starlink 34421

NORAD ID: 64459 Int'l Des: 2025-130 Owner: SPXS Country: US Constellation: starlink operational
LEOCIRCULAR

Live Position

Loading 3D Globe...

About Starlink 34421

Description loading...

Upcoming Passes

Passes for default location (London). Set your location on the main map for personalized predictions.

Altitude History

Loading altitude history...

Two-Line Element Set

1 64459U 25130X 26106.84672125 .00010998 00000-0 38288-3 0 9998
2 64459 53.1619 271.3943 0001577 102.2777 257.8401 15.30202043 46546
Epoch: Apr 16, 2026 • Age: 4 hours

Current Status

Altitude 492.8 km
Velocity 7.62 km/s
Sub-Earth Point -48.61°S, 64.98°W
Launch Date Jun 18, 2025
Age 0.8 years
Type internet

Technical Details

Classification Payload
Mass 575.00 kg
Dry Mass 530.00 kg
Total Mass 575.00 kg
Length 0.30 m
Diameter 4.10 m
Span 29.00 m
Shape Box + pan
Manufacturer SPXS
Bus Type Starlink V2MO
Phase Status In Orbit
Owner/State SPXS/US

Most Searched